Home   Weather   Freehold   Past weeks

Flag for USA Past Weather in Freehold, New Jersey, USA — Yesterday and Last 2 Weeks

Now
52 °F

Overcast.


Feels Like: 47 °F
Forecast: 50 / 60 °F
Wind: 14 mph from Northeast

Location: Belmar-Farmdale

Current Time: Apr 30, 2017 at 6:52:24 pm

Latest Report: Apr 30, 2017 at 5:56 pm


Visibility: 10 mi

Pressure: 30.23 "Hg

Humidity: 75%

Dew Point: 44 °F

Location of FreeholdLocation

Past Weather in Freehold — Graph

°F

Freehold Temperature Yesterday

Maximum temperature yesterday: 85 °F (at 1:56 pm)
Minimum temperature yesterday: 65 °F (at 6:56 am)
Average temperature yesterday: 74 °F

High & Low Weather Summary for the Past Weeks

 TemperatureHumidityPressure
High87 °F (Apr 16, 3:56 pm)100% (Apr 21, 3:43 am)30.55 "Hg (Apr 21, 3:43 am)
Low43 °F (Apr 23, 3:56 am)22% (Apr 17, 5:56 pm)29.71 "Hg (Apr 26, 6:36 am)
Average57 °F80%30.04 "Hg
* Reported Apr 15 4:05 pm — Apr 30 4:40 pm, Freehold, Weather by CustomWeather, © 2017

Note: Actual official high and low records may vary slightly from our data, if they occured in-between our weather recording intervals... More about our weather records

Advertising

Freehold Weather History for the Previous 24 Hours

Scroll right to see more
 ConditionsComfort  
Time TempWeatherWind HumidityBarometerVisibility
4:40 pm
Sun, Apr 30
54 °FOvercast.16 mph67%30.21 "Hg10 mi
3:56 pm54 °FOvercast.10 mph64%30.23 "Hg10 mi
2:56 pm55 °FOvercast.17 mph64%30.24 "Hg10 mi
1:56 pm57 °FOvercast.16 mph64%30.25 "Hg10 mi
12:56 pm58 °FOvercast.14 mph60%30.26 "Hg10 mi
11:56 am59 °FOvercast.16 mph51%30.25 "Hg10 mi
10:56 am60 °FOvercast.10 mph49%30.25 "Hg10 mi
9:56 am61 °FOvercast.16 mph44%30.25 "Hg10 mi
8:56 am61 °FMore clouds than sun.12 mph48%30.25 "Hg10 mi
7:56 am60 °FOvercast.13 mph53%30.24 "Hg10 mi
6:56 am62 °FScattered clouds.12 mph58%30.21 "Hg10 mi
5:56 am62 °FClear.3 mph50%30.17 "Hg10 mi
4:56 am63 °FPassing clouds.7 mph52%30.17 "Hg10 mi
3:56 am64 °FClear.5 mph73%30.16 "Hg10 mi
2:56 am65 °FOvercast.6 mph73%30.14 "Hg10 mi
1:56 am67 °FClear.8 mph68%30.14 "Hg10 mi
12:56 am69 °FPassing clouds.9 mph70%30.14 "Hg10 mi
11:56 pm
Sat, Apr 29
72 °FClear.5 mph64%30.12 "Hg10 mi
10:56 pm74 °FClear.8 mph64%30.10 "Hg10 mi
9:56 pm72 °FClear.7 mph71%30.09 "Hg10 mi
8:56 pm76 °FClear.3 mph60%30.06 "Hg10 mi
7:56 pm78 °FClear.6 mph54%30.05 "Hg10 mi
6:56 pm81 °FSunny.9 mph49%30.03 "Hg10 mi
Weather by CustomWeather, © 2017

See weather overviewHow to use our weather pages